Simultaneous Nadir Overpasses (SNOs) Predictions

Prediction of SNOs between GOES-15 and METOP-A Satellite Orbit:

Table of predicted SNOs for the next 14.0 days since TLE Epoch: 3/4/2022
Index Date Time (GOES-15) GOES-15 Lat,Lon METOP-A Lat,Lon Distance(km) Time Diff (sec)
1 03/05/2022 04:45:58 -0.03,-127.57 -0.41,-129.26 192.57 80
2 03/07/2022 16:34:25 0.03,-127.69 -0.39,-125.70 226.25 80
3 03/08/2022 04:47:34 -0.03,-127.70 -0.41,-129.51 205.68 80
4 03/10/2022 16:36:10 0.03,-127.82 -0.37,-125.99 207.67 80
5 03/11/2022 04:49:09 -0.02,-127.83 -0.45,-129.76 220.09 80
6 03/13/2022 16:37:52 0.03,-127.93 -0.31,-126.27 188.57 80
7 03/14/2022 04:50:43 -0.02,-127.94 -0.49,-130.00 235.58 80
8 03/16/2022 16:39:34 0.03,-128.04 -0.29,-126.55 169.40 80
9 03/17/2022 04:52:18 -0.02,-128.04 -0.52,-130.25 251.75 80
